Wind_Speed
8 8 9 10 11 11 12 12 12 9 9 12 12 9 11 13 18 22 22 23 27 25 24 24 24 23 25 26 27 28 29 29 30 29 28 27 26 27
9 10 11 11 11 10 11 12 12 15 11 16 15 14 12 16 18 19 22 24 23 24 23 22 23 25 26 27 29 30 31 30 29 29 28 27 26 27
14 13 12 12 11 11 12 12 13 14 17 20 14 14 13 17 18 19 20 21 21 21 24 25 26 26 26 27 27 27 28 29 30 29 27 27 28 28
16 15 15 11 14 13 13 14 13 14 17 20 19 16 15 16 17 18 19 19 21 22 23 24 24 22 21 23 25 26 27 28 28 29 28 28 28 28
18 17 16 14 15 14 14 13 14 14 14 16 20 16 16 15 17 18 18 20 19 21 23 21 18 20 22 24 25 26 26 26 26 27 27 28 28 28
22 21 19 18 18 14 15 15 14 13 14 16 18 17 16 15 15 17 19 19 21 21 19 16 20 21 22 20 20 20 21 22 22 22 24 27 27 29
25 24 23 24 22 18 15 16 14 14 15 16 17 16 16 15 16 16 18 20 21 18 17 17 22 21 18 18 19 19 20 21 22 23 25 26 27 28
20 21 24 25 24 23 21 21 17 15 16 16 15 15 17 16 14 14 17 18 18 18 21 24 20 21 20 20 22 25 23 19 18 16 17 22 24 26
21 20 20 23 25 21 20 21 20 20 20 16 16 17 17 14 13 15 16 19 22 24 23 23 21 20 19 22 24 24 21 16 17 18 18 19 21 24
24 23 21 20 23 22 19 17 17 17 18 18 17 17 16 13 13 15 18 21 22 21 18 20 19 20 22 22 20 16 14 15 18 20 21 21 22 24
22 23 22 21 23 25 21 19 18 19 18 21 20 19 17 15 14 16 18 18 20 21 18 12 16 24 22 20 14 16 22 20 21 23 24 23 24 26
21 23 24 26 26 25 25 23 20 21 16 15 15 15 16 15 16 15 16 17 18 15 6 14 18 16 10 12 22 20 19 18 19 23 24 25 23 24
19 20 22 28 30 28 27 28 29 22 17 16 15 14 14 14 14 14 14 15 17 18 19 16 17 19 13 22 25 25 19 21 21 21 20 25 27 25
26 23 25 28 27 28 29 32 30 28 17 16 16 16 15 15 15 14 14 15 16 20 20 18 18 18 20 22 23 23 25 21 18 17 27 32 30 24
34 33 30 27 25 26 28 30 29 27 21 20 20 18 16 14 13 12 12 14 15 16 15 13 15 16 17 21 24 25 24 18 15 20 29 32 29 20
27 31 35 32 28 22 21 23 28 26 26 24 20 17 15 13 13 12 12 12 13 13 11 11 12 14 18 19 19 20 18 14 19 22 28 31 21 10
33 31 26 20 20 21 21 22 21 24 25 25 19 18 16 15 13 11 11 10 12 12 13 12 11 14 17 17 15 13 16 16 16 21 25 23 24 23
28 26 25 23 23 22 19 18 20 21 23 24 21 20 19 16 14 12 10 10 11 11 12 12 13 14 10 5 7 9 14 15 16 17 17 15 19 29
20 22 23 22 23 22 19 18 20 20 21 21 21 20 19 16 14 13 11 10 10 10 10 10 10 9 6 5 5 6 12 15 16 13 13 15 11 18
25 22 23 22 22 21 17 17 17 15 16 17 18 19 18 17 15 14 12 10 9 9 9 8 7 7 8 6 6 8 9 11 14 11 11 11 12 14
25 26 27 30 21 21 19 18 17 16 15 15 16 18 18 18 17 15 12 11 9 8 8 8 8 10 10 6 5 7 5 6 9 10 12 6 6 8
24 24 25 28 35 23 20 19 16 15 15 16 15 17 18 19 18 16 13 11 10 9 8 8 8 6 5 5 6 3 2 2 7 13 14 12 4 3
24 25 25 26 25 26 18 12 13 13 14 15 15 17 18 19 19 16 14 12 9 8 7 6 5 4 4 4 4 2 1 1 2 5 11 14 13 12
Wind_Direction
223 235 244 254 256 255 248 246 267 289 294 304 278 281 273 281 297 306 304 304 305 302 300 300 297 292 293 292 290 288 288 286 284 282 281 281 282 283
234 244 246 250 256 251 243 240 247 266 287 296 287 284 275 287 297 302 302 303 301 301 302 299 294 291 291 289 287 285 284 282 282 279 278 279 280 281
234 242 245 248 249 241 232 241 252 259 273 290 286 282 278 293 298 302 302 301 300 300 300 298 292 291 290 288 286 287 287 282 276 278 277 278 278 281
240 239 245 240 242 238 237 244 254 261 268 284 290 285 286 296 299 302 302 300 299 301 301 297 295 291 290 287 285 286 286 284 280 273 273 276 276 278
245 245 248 239 239 241 239 247 255 258 261 269 283 284 290 298 301 304 302 303 303 302 300 298 294 293 292 290 288 284 284 285 284 273 268 271 275 275
256 257 252 240 239 243 246 251 251 255 263 267 277 283 289 297 299 304 307 308 309 309 301 296 299 298 296 293 295 293 289 287 285 278 273 272 276 276
264 263 257 249 245 247 247 248 246 255 262 269 274 281 287 299 301 305 302 310 313 310 302 305 305 303 299 297 296 297 294 294 291 284 277 274 274 278
264 263 257 249 246 249 249 247 246 250 257 262 269 275 288 297 296 300 305 309 314 316 308 306 305 300 298 299 297 299 297 292 295 311 293 279 276 274
271 264 253 248 245 242 244 247 251 254 250 253 258 270 285 289 289 294 299 303 305 308 307 304 306 299 302 305 307 303 291 276 293 302 305 300 289 277
273 267 255 246 242 241 236 234 238 242 240 242 249 267 275 271 277 289 297 298 301 303 303 297 303 305 309 309 312 316 308 278 294 298 303 300 300 294
276 269 257 247 245 247 234 234 241 247 250 249 252 266 265 265 269 286 292 302 304 310 311 297 307 313 311 305 315 314 312 298 292 294 298 300 303 300
281 274 265 254 252 247 237 238 238 246 242 238 244 256 254 258 262 266 283 291 300 313 305 319 314 323 314 306 322 323 316 307 304 305 299 301 300 298
281 275 266 265 254 247 240 241 246 251 239 234 242 247 250 256 260 263 270 277 286 282 289 301 299 303 291 303 313 316 315 314 309 303 301 301 303 294
278 278 276 274 266 255 247 244 253 252 239 231 233 240 245 253 259 262 266 274 276 279 289 289 284 289 295 299 305 313 316 318 309 302 312 314 309 301
273 276 282 280 271 262 254 244 252 233 227 232 234 241 243 249 257 258 261 280 281 283 285 282 280 286 287 291 298 308 316 321 314 316 316 313 311 303
293 278 274 270 262 250 242 246 249 229 224 227 231 239 244 240 249 252 261 285 285 292 292 289 285 282 284 286 292 298 321 321 319 319 322 325 346 351
300 289 271 246 239 237 238 240 237 231 225 227 224 228 238 238 242 246 254 276 277 293 302 308 303 296 282 276 279 291 319 324 324 326 328 332 2 26
294 286 265 252 239 232 228 235 234 231 232 228 221 226 231 231 236 238 246 256 274 291 301 312 320 325 320 281 252 303 324 327 329 330 337 337 5 23
288 282 270 253 250 240 227 234 238 236 235 226 223 221 221 224 222 230 241 249 267 281 294 303 314 321 325 321 306 299 328 329 332 335 347 345 357 24
340 309 291 276 255 238 228 236 242 242 227 228 225 221 210 213 213 221 232 241 259 276 288 294 301 310 308 307 316 304 324 332 340 337 344 347 2 40
348 342 334 335 268 252 235 235 235 238 236 233 228 216 208 206 212 218 225 227 241 261 273 288 302 304 296 279 261 289 315 355 27 17 356 357 10 34
341 340 340 338 346 248 230 240 234 235 239 234 233 219 207 206 210 211 214 221 229 245 261 285 305 309 304 297 314 290 278 348 48 52 47 46 13 42
335 336 336 340 346 347 356 250 235 243 241 236 231 218 204 203 206 210 211 212 221 230 244 275 300 303 301 315 331 356 1 317 17 54 48 63 77 76
Height
859 860 861 863 862 862 862 862 861 857 853 854 857 855 853 852 850 846 843 839 834 831 828 825 823 821 818 816 813 811 808 806 803 801 799 797 795 794
857 857 858 859 859 858 858 859 858 857 851 852 851 852 850 848 846 842 838 833 829 825 822 819 817 814 812 809 807 804 802 800 797 795 792 791 789 788
854 854 855 855 855 854 854 854 854 854 851 848 848 848 846 844 841 838 833 829 824 821 817 813 810 808 806 803 800 797 794 792 790 788 786 785 783 781
850 850 849 849 850 850 849 849 849 849 848 844 844 844 842 839 836 832 829 825 820 816 811 807 804 801 799 796 793 791 787 785 782 780 779 778 776 774
843 842 843 844 845 844 844 844 844 844 844 842 839 839 838 835 831 828 824 820 816 811 806 802 799 797 793 790 786 783 780 777 774 772 771 770 768 767
836 836 836 837 838 838 838 839 839 839 839 838 835 834 832 831 828 824 819 816 811 807 802 799 795 791 787 783 779 775 772 770 767 765 763 762 760 758
830 829 829 830 831 832 833 834 834 834 834 833 830 829 827 825 823 821 817 812 808 803 798 795 790 785 781 778 774 770 766 763 760 758 756 754 752 750
823 822 822 823 824 825 826 827 828 828 828 827 826 824 822 821 819 817 814 810 803 799 794 790 786 780 776 772 768 763 759 756 754 751 748 746 744 742
817 816 816 815 817 818 819 820 820 820 821 822 821 819 817 817 815 813 810 807 801 797 792 785 781 775 771 766 762 756 752 750 749 746 743 740 737 735
810 809 809 809 809 811 812 813 813 814 814 814 814 813 812 812 811 809 806 803 798 793 789 782 776 771 766 761 756 752 748 746 744 741 738 734 731 727
803 802 801 801 802 804 805 806 807 807 806 806 806 806 806 805 805 805 801 798 792 788 783 779 773 768 762 756 753 750 746 742 738 735 731 728 724 719
797 795 794 794 795 796 797 798 799 799 800 800 800 800 800 800 799 799 797 794 790 785 780 779 774 769 759 752 750 745 741 737 733 729 724 720 717 712
791 788 787 786 787 788 788 789 788 791 792 793 793 794 794 794 793 792 791 790 787 782 779 777 772 769 765 755 747 742 738 733 728 723 718 713 709 705
784 781 779 778 778 778 780 779 781 784 786 786 786 786 786 786 786 786 785 784 781 778 774 772 768 766 760 753 746 739 734 730 724 719 712 705 699 694
775 772 771 770 770 769 769 771 773 773 776 778 777 778 779 779 780 779 779 778 775 772 769 767 764 761 757 752 744 738 731 725 721 717 707 699 691 686
768 764 762 761 760 760 761 762 764 764 765 767 768 770 773 773 773 774 773 772 770 767 765 762 759 757 752 748 744 736 731 726 721 714 706 694 689 681
762 757 754 751 750 750 751 752 754 755 756 758 759 762 765 766 767 768 768 767 766 762 760 758 755 751 747 744 740 734 730 726 721 715 706 698 690 684
753 749 744 742 740 740 741 744 746 746 747 749 750 754 757 759 760 762 763 762 761 758 756 753 751 747 742 738 737 734 730 726 721 715 709 703 697 690
744 739 735 734 733 732 731 735 737 737 739 740 742 745 748 751 753 756 757 757 756 755 753 751 748 746 741 736 735 733 731 726 721 716 712 707 704 700
743 736 731 727 725 725 724 727 729 731 732 733 735 737 739 743 746 749 751 752 752 751 750 748 746 744 742 739 737 733 730 727 723 718 715 712 708 706
746 739 732 725 719 718 718 719 722 724 725 726 727 729 731 736 739 743 745 747 748 748 746 744 743 741 739 738 735 731 730 728 725 721 718 715 712 711
748 741 734 727 716 709 711 712 715 717 718 719 720 722 724 728 733 736 740 742 743 743 743 742 740 738 737 735 731 730 729 729 727 725 721 719 717 714
748 742 735 728 721 714 710 709 709 710 711 712 713 715 717 722 726 731 734 737 739 740 740 739 738 737 735 734 732 730 729 729 728 727 726 723 722 721